Find Starlink 5869

NORAD ID: 57061 Int'l Des: 2023-088 Owner: SPXS Country: US Constellation: starlink operational
LEOCIRCULAR

Live Position

Loading 3D Globe...

About Starlink 5869

Description loading...

Upcoming Passes

Passes for default location (London). Set your location on the main map for personalized predictions.

Altitude History

Loading altitude history...

Two-Line Element Set

1 57061U 23088P 26129.69184054 .00000621 00000-0 32103-4 0 9999
2 57061 43.0019 129.4000 0001151 272.8247 87.2473 15.27575385158647
Epoch: May 9, 2026 • Age: 11 hours

Current Status

Altitude 491.9 km
Velocity 7.62 km/s
Sub-Earth Point -33.80°S, 163.08°E
Launch Date Jun 22, 2023
Age 2.8 years
Type internet

Technical Details

Classification Payload
Mass 305.00 kg
Dry Mass 290.00 kg
Total Mass 305.00 kg
Length 0.20 m
Diameter 2.80 m
Span 9.00 m
Shape Box + pan
Manufacturer SPXS
Bus Type Starlink
Phase Status In Orbit
Owner/State SPXS/US

Most Searched